Flag for U.S.A. Weather past 2 weeks in Thousand Oaks, California, U.S.A.

Now
69 °F

Clear.


Feels Like: 69 °F
Forecast: 62 / 83 °F
Wind: 6 mph from Northeast

Location: Camarillo Airport

Current Time: Sep 1, 2014 at 2:18:34 AM

Latest Report: Sep 1, 2014 at 1:55 AM


Visibility: 9 mi

Pressure: 29.82 "Hg

Humidity: 73%

Dew point: 60 °F

Location of Thousand OaksLocation

Historic Weather in Thousand Oaks — Graph

°F

Thousand Oaks temperature yesterday

Maximum temperature yesterday: 85 °F (at 1:55 PM)
Minimum temperature yesterday: 66 °F (at 4:55 AM)
Average temperature yesterday: 75 °F

Past Weeks' High & Low Weather Summary

 TemperatureHumidityPressure
High90 °F (Aug 27, 1:55 PM)84% (Aug 22, 11:03 PM)30.05 "Hg (Aug 22, 11:03 PM)
Low58 °F (Aug 26, 5:55 AM)23% (Aug 27, 1:55 PM)29.75 "Hg (Aug 30, 6:55 PM)
Average71 °F64%29.92 "Hg
* Reported Aug 17 12:55 AM — Sep 1 12:55 AM, Thousand Oaks, Weather by CustomWeather, © 2014

Note: Actual official high and low records may vary slightly from our data, if they occured in-between our weather recording intervals... More about our weather records

Advertising

Thousand Oaks weather history for previous 24 hours

 ConditionsComfort  
Time TempWeatherWind HumidityBarometerVisibility
12:55 AM
Sep 1
70 °FClear.No wind71%29.82 "Hg9 mi
11:55 PM
Aug 31
70 °FClear.No wind73%29.82 "Hg9 mi
10:55 PM71 °FClear.No wind71%29.82 "Hg9 mi
9:55 PM72 °FClear.No wind71%29.81 "Hg10 mi
8:55 PM72 °FClear.No wind71%29.79 "Hg10 mi
7:55 PM74 °FSunny.No wind69%29.78 "Hg10 mi
6:55 PM75 °FSunny.5 mph66%29.77 "Hg10 mi
5:55 PM78 °FSunny.10 mph64%29.77 "Hg10 mi
4:55 PM81 °FSunny.10 mph58%29.77 "Hg10 mi
3:55 PM83 °FSunny.10 mph55%29.78 "Hg10 mi
2:55 PM85 °FSunny.13 mph50%29.80 "Hg10 mi
1:55 PM85 °FSunny.12 mph46%29.82 "Hg10 mi
12:55 PM83 °FSunny.8 mph51%29.84 "Hg10 mi
11:55 AM81 °FSunny.12 mph56%29.85 "Hg8 mi
10:55 AM82 °FSunny.9 mph55%29.86 "Hg9 mi
9:55 AM78 °FSunny.5 mph60%29.85 "Hg10 mi
8:55 AM76 °FSunny.5 mph58%29.85 "Hg10 mi
7:55 AM71 °FSunny.5 mph68%29.84 "Hg9 mi
6:55 AM67 °FClear.5 mph73%29.83 "Hg9 mi
5:55 AM67 °FClear.3 mph73%29.82 "Hg10 mi
4:55 AM66 °FClear.3 mph78%29.80 "Hg8 mi
3:55 AM68 °FClear.No wind76%29.79 "Hg8 mi
2:55 AM69 °FClear.No wind73%29.79 "Hg9 mi
Weather by CustomWeather, © 2014

See weather overviewHow to use our weather pages